This is the latest recevied weather packets stored in our database for station/object W7TRD. If no packets are shown the sender has not sent any weather packets the latest 10 day(s).
| Time | Temp. | Humidity | Pressure | Rain* | Wind** | Luminosity | Snow |
|---|---|---|---|---|---|---|---|
| 1787969741 | 21.67° C | 53% | 1015.8 hPa | 0 mm | - | 21 W/m² | - |
| 1787969441 | 21.67° C | 53% | 1015.9 hPa | 0 mm | - | 23 W/m² | - |
| 1787969140 | 21.67° C | 52% | 1015.9 hPa | 0 mm | - | 24 W/m² | - |
| 1787968835 | 22.22° C | 52% | 1015.8 hPa | 0 mm | - | 28 W/m² | - |
| 1787968534 | 22.22° C | 52% | 1015.9 hPa | 0 mm | - | 29 W/m² | - |
| 1787968230 | 22.22° C | 52% | 1016.2 hPa | 0 mm | - | 29 W/m² | - |
| 1787967925 | 22.78° C | 51% | 1016.1 hPa | 0 mm | - | 31 W/m² | - |
| 1787967621 | 22.78° C | 52% | 1015.9 hPa | 0 mm | - | 32 W/m² | - |
| 1787967316 | 22.78° C | 52% | 1016 hPa | 0 mm | - | 34 W/m² | - |
| 1787967012 | 22.78° C | 51% | 1015.9 hPa | 0 mm | - | 34 W/m² | - |
| 1787966709 | 22.78° C | 51% | 1015.9 hPa | 0 mm | - | 36 W/m² | - |
| 1787966409 | 22.78° C | 51% | 1016.3 hPa | 0 mm | - | 43 W/m² | - |
| 1787966109 | 22.78° C | 51% | 1016 hPa | 0 mm | - | 38 W/m² | - |
| 1787965808 | 23.33° C | 51% | 1016 hPa | 0 mm | - | 39 W/m² | - |
| 1787965503 | 23.33° C | 51% | 1015.8 hPa | 0 mm | - | 38 W/m² | - |
| 1787965202 | 23.33° C | 50% | 1016 hPa | 0 mm | - | 38 W/m² | - |
| 1787964896 | 23.33° C | 51% | 1015.8 hPa | 0 mm | - | 39 W/m² | - |
| 1787964592 | 23.33° C | 50% | 1016.1 hPa | 0 mm | - | 40 W/m² | - |
| 1787964286 | 23.33° C | 50% | 1016.1 hPa | 0 mm | - | 44 W/m² | - |
| 1787963986 | 23.33° C | 51% | 1016.2 hPa | 0 mm | - | 52 W/m² | - |
| 1787963681 | 23.33° C | 50% | 1016.2 hPa | 0 mm | - | 46 W/m² | - |
| 1787963381 | 23.33° C | 50% | 1016.3 hPa | 0 mm | - | 42 W/m² | - |
| 1787963076 | 23.33° C | 50% | 1016.2 hPa | 0 mm | - | 43 W/m² | - |
| 1787962775 | 23.33° C | 50% | 1016.3 hPa | 0 mm | - | 45 W/m² | - |
| 1787962475 | 23.33° C | 50% | 1016.3 hPa | 0 mm | - | 48 W/m² | - |
* Rain latest hour (hover to see other rain measurements)
** Current wind speed in m/s (hover to see current wind gust speed)